FW0807 Weather Reports


time (UTC)temp
C
wind
direction
speed
KPH
gust
KPH
rain 1hr
cm
rain 24hr
cm
rain mn
cm
humidity
%
barometer
mb
20260510094656 12 355 0.0 0.0 0.00 0.00 0.00 95 1013.4
20260510093101 12 355 0.0 0.0 0.00 0.00 0.00 94 1013.3
20260510091555 11 355 0.0 0.0 0.00 0.00 0.00 94 1013.3
20260510084611 11 355 0.0 0.0 0.00 0.00 0.00 94 1013.3
20260510083053 12 355 0.0 0.0 0.00 0.00 0.00 93 1013.1
20260510081556 12 355 1.6 3.2 0.00 0.00 0.00 93 1013.0
20260510080050 12 330 0.0 0.0 0.00 0.00 0.00 92 1012.5
20260510074548 12 330 0.0 0.0 0.00 0.00 0.00 92 1012.3
20260510073045 12 330 0.0 0.0 0.00 0.00 0.00 91 1012.4
20260510071546 13 330 0.0 1.6 0.00 0.00 0.00 91 1012.6
20260510070047 13 330 1.6 3.2 0.00 0.00 0.00 92 1012.5
20260510064542 13 330 0.0 0.0 0.00 0.00 0.00 92 1012.8
20260510063047 13 330 0.0 0.0 0.00 0.00 0.00 91 1013.0
20260510061541 13 330 0.0 0.0 0.00 0.00 0.00 91 1013.1
20260510060040 13 330 0.0 0.0 0.00 0.00 0.00 91 1013.0
20260510054538 13 330 0.0 0.0 0.00 0.00 0.00 90 1013.1
20260510053038 13 330 0.0 1.6 0.00 0.00 0.00 89 1013.0
20260510051535 13 330 0.0 0.0 0.00 0.00 0.00 89 1012.8
20260510050039 13 330 0.0 0.0 0.00 0.00 0.00 87 1012.6
20260510044534 13 330 0.0 3.2 0.00 0.00 0.00 85 1012.5
20260510043029 14 300 0.0 1.6 0.00 0.00 0.00 83 1012.3
20260510041529 15 300 0.0 1.6 0.00 0.00 0.00 80 1012.2
20260510040028 15 300 0.0 1.6 0.00 0.00 0.00 79 1012.2
20260510034529 15 300 0.0 0.0 0.00 0.00 0.00 79 1012.1
20260510033026 15 299 0.0 0.0 0.00 0.00 0.00 79 1012.1
20260510031525 16 299 0.0 0.0 0.00 0.00 0.00 78 1011.9
20260510030024 16 315 0.0 1.6 0.00 0.00 0.00 76 1011.9
20260510024522 16 315 0.0 1.6 0.00 0.00 0.00 77 1011.7
20260510023021 17 315 0.0 3.2 0.00 0.00 0.00 73 1011.4
20260510021521 17 258 0.0 0.0 0.00 0.00 0.00 74 1011.3
20260510020021 18 258 0.0 0.0 0.00 0.00 0.00 72 1011.1
20260510014520 18 258 0.0 1.6 0.00 0.00 0.00 70 1010.9
20260510013021 18 171 0.0 0.0 0.00 0.00 0.00 73 1010.7
20260510011534 18 171 0.0 0.0 0.00 0.00 0.00 74 1010.5
20260510010019 18 171 0.0 0.0 0.00 0.00 0.00 75 1010.3
20260510004617 21 171 0.0 0.0 0.00 0.00 0.00 69 1010.2
20260510003018 22 171 0.0 1.6 0.00 0.00 0.00 62 1010.0
20260510001518 24 171 0.0 3.2 0.00 0.00 0.00 53 1009.9
20260510000017 25 184 1.6 4.8 0.00 0.00 0.00 46 1009.7
20260509234515 25 195 1.6 8.0 0.00 0.00 0.00 45 1009.8
20260509233014 26 198 1.6 6.4 0.00 0.00 0.00 42 1009.7
20260509231514 26 173 3.2 6.4 0.00 0.00 0.00 40 1009.8
20260509230013 26 187 3.2 8.0 0.00 0.00 0.00 45 1009.6
20260509224512 26 190 1.6 4.8 0.00 0.00 0.00 41 1009.7
20260509223012 27 202 3.2 6.4 0.00 0.00 0.00 37 1009.6
20260509221512 27 36 1.6 3.2 0.00 0.00 0.00 38 1009.4
20260509220011 27 51 1.6 6.4 0.00 0.00 0.00 38 1009.3
20260509214510 27 192 1.6 11.3 0.00 0.00 0.00 40 1009.3
20260509213010 27 149 1.6 4.8 0.00 0.00 0.00 42 1009.4
20260509211515 27 154 0.0 6.4 0.00 0.00 0.00 37 1009.5
20260509210008 27 237 1.6 4.8 0.00 0.00 0.00 35 1009.8
20260509204506 27 155 1.6 6.4 0.00 0.00 0.00 35 1009.8
20260509203006 27 188 3.2 9.7 0.00 0.00 0.00 39 1010.0
20260509201505 27 255 3.2 11.3 0.00 0.00 0.00 39 1010.1
20260509200005 27 195 3.2 11.3 0.00 0.00 0.00 36 1010.3
20260509194504 27 202 4.8 8.0 0.00 0.00 0.00 41 1010.3
20260509193103 27 355 8.0 16.1 0.00 0.00 0.00 36 1010.5
20260509191601 27 52 0.0 9.7 0.00 0.00 0.00 40 1010.6
20260509190101 27 5 1.6 6.4 0.00 0.00 0.00 38 1010.7
20260509184606 26 209 4.8 11.3 0.00 0.00 0.00 39 1010.8
20260509183045 26 209 3.2 9.7 0.00 0.00 0.00 41 1010.7
20260509181549 26 234 4.8 11.3 0.00 0.00 0.00 41 1010.9
20260509180042 26 180 3.2 9.7 0.00 0.00 0.00 53 1010.8
20260509174541 26 55 1.6 8.0 0.00 0.00 0.00 48 1010.8
20260509173038 26 300 1.6 8.0 0.00 0.00 0.00 52 1010.8
20260509171535 25 240 1.6 4.8 0.00 0.00 0.00 52 1011.0
20260509170032 25 349 1.6 8.0 0.00 0.00 0.00 56 1011.1
20260509164527 24 5 3.2 9.7 0.00 0.00 0.00 54 1011.2
20260509163024 24 355 1.6 8.0 0.00 0.00 0.00 62 1011.1
20260509161520 23 253 3.2 12.9 0.00 0.00 0.00 63 1011.1
20260509160014 23 331 0.0 6.4 0.00 0.00 0.00 66 1011.0
20260509154515 22 257 0.0 8.0 0.00 0.00 0.00 68 1011.1
20260509153017 22 15 4.8 8.0 0.00 0.00 0.00 70 1011.1
20260509151505 21 242 1.6 8.0 0.00 0.00 0.00 71 1011.2
20260509150001 21 310 3.2 12.9 0.00 0.00 0.00 74 1011.7
20260509144610 21 325 3.2 12.9 0.00 0.00 0.00 73 1011.0
20260509143117 20 333 3.2 6.4 0.00 0.00 0.00 78 1011.1
20260509141550 20 224 4.8 9.7 0.00 0.00 0.00 77 1011.1
20260509140052 19 297 1.6 11.3 0.00 0.00 0.00 77 1011.1
20260509134600 18 275 4.8 14.5 0.00 0.00 0.00 80 1010.9
20260509133044 17 223 4.8 14.5 0.00 0.00 0.00 81 1010.9
20260509131536 17 279 3.2 9.7 0.00 0.00 0.00 83 1010.7
20260509130031 16 250 3.2 8.0 0.00 0.00 0.00 86 1010.6
20260509124532 15 263 3.2 9.7 0.00 0.00 0.00 91 1010.5
20260509123025 13 264 1.6 4.8 0.00 0.00 0.00 95 1010.5
20260509121538 11 271 0.0 0.0 0.00 0.00 0.00 95 1010.2
20260509120021 11 271 0.0 0.0 0.00 0.00 0.00 95 1010.1
20260509114530 11 271 0.0 0.0 0.00 0.00 0.00 95 1010.0
20260509113024 10 271 0.0 0.0 0.00 0.00 0.00 94 1009.8
20260509111514 10 271 0.0 0.0 0.00 0.00 0.00 93 1009.7
20260509110013 11 271 0.0 0.0 0.00 0.00 0.00 92 1009.5
20260509104516 11 271 0.0 0.0 0.00 0.00 0.00 92 1009.6
20260509103008 11 271 0.0 0.0 0.00 0.00 0.00 90 1009.7
20260509101506 12 271 0.0 0.0 0.00 0.00 0.00 88 1009.6
20260509100006 13 271 0.0 0.0 0.00 0.00 0.00 86 1009.5